Weather History for KIMT - March, 2013

Change the Weather History Date:

Wednesday, March 6, 2013

  Actual Average Record
Temperature  
Mean Temperature 22 °F -  
Max Temperature 30 °F 33 °F 58 °F (1974)
Min Temperature 14 °F 9 °F -20 °F (1989)
Degree Days  
Heating Degree Days 42    
Moisture  
Dew Point 19 °F    
Average Humidity 81    
Maximum Humidity 91    
Minimum Humidity 69    
Precipitation  
Precipitation 0.00 in - - ()
Sea Level Pressure  
Sea Level Pressure 30.24 in    
Wind  
Wind Speed 8 mph (NNW)    
Max Wind Speed 13 mph    
Max Gust Speed -    
Visibility 8 miles    
Events Snow    
Averages and records for this station are not official NWS values.
T = Trace of Precipitation, MM = Missing Value Source: NWS Daily Summary

Daily Weather History Graph

Daily Weather History Graph

Search for Another Location

Airport or City:

Trip Planner

Search our weather history database for the weather conditions in past years. The results will help you decide how hot, cold, wet, or windy it might be!

Date:

Astronomy

Mar. 06, 2013 Rise Set
Actual Time 6:21 AM CST 5:46 PM CST
Civil Twilight 5:51 AM CST 6:16 PM CST
Nautical Twilight 5:17 AM CST 6:50 PM CST
Astronomical Twilight 4:42 AM CST 7:25 PM CST
Moon 2:43 AM CST (3/6) 12:15 PM CST (3/6)
Length of Visible Light 12h 24m
Length of Day
11h 24m
Waning Crescent, 29% of the Moon is Illuminated
Mar 6
Waning Crescent
Mar 11
New
Mar 19
First Quarter
Mar 27
Full
Apr 2
Last Quarter

Hourly Weather History & Observations

Time (CST) Temp. Windchill Dew Point Humidity Pressure Visibility Wind Dir Wind Speed Gust Speed Precip Events Conditions
12:06 AM 24.8 °F 16.9 °F 21.2 °F 86% 30.10 in 8.0 mi NW 6.9 mph - N/A   Overcast
12:34 AM 24.8 °F 16.9 °F 21.2 °F 86% 30.11 in 8.0 mi WNW 6.9 mph - N/A   Overcast
12:54 AM 24.1 °F 13.7 °F 21.9 °F 91% 30.17 in 10.0 mi WNW 10.4 mph - N/A   Overcast
1:54 AM 24.1 °F 15.2 °F 21.9 °F 91% 30.19 in 10.0 mi NNW 8.1 mph - N/A   Overcast
2:54 AM 24.1 °F 14.4 °F 21.9 °F 91% 30.20 in 9.0 mi NNW 9.2 mph - N/A   Overcast
3:46 AM 24.8 °F 15.3 °F 21.2 °F 86% 30.16 in 4.0 mi NNW 9.2 mph - N/A   Overcast
3:54 AM 24.1 °F 14.4 °F 21.9 °F 91% 30.22 in 4.0 mi NNW 9.2 mph - N/A   Overcast
4:14 AM 24.8 °F 16.9 °F 21.2 °F 86% 30.16 in 6.0 mi NNW 6.9 mph - N/A   Overcast
4:36 AM 24.8 °F 16.1 °F 21.2 °F 86% 30.17 in 8.0 mi NNW 8.1 mph - N/A   Overcast
4:47 AM 24.8 °F 16.9 °F 21.2 °F 86% 30.16 in 10.0 mi North 6.9 mph - N/A   Overcast
4:54 AM 25.0 °F 17.1 °F 21.9 °F 88% 30.22 in 10.0 mi NNW 6.9 mph - N/A   Overcast
5:02 AM 24.8 °F 19.1 °F 21.2 °F 86% 30.15 in 10.0 mi NNW 4.6 mph - N/A   Overcast
5:49 AM 24.8 °F 15.3 °F 21.2 °F 86% 30.17 in 10.0 mi NW 9.2 mph - N/A   Overcast
5:54 AM 24.1 °F 14.4 °F 21.9 °F 91% 30.24 in 10.0 mi NW 9.2 mph - N/A   Overcast
6:42 AM 24.8 °F 15.3 °F 21.2 °F 86% 30.19 in 1.8 mi NW 9.2 mph - 0.00 in Snow Light Snow
6:52 AM 24.8 °F 14.6 °F 21.2 °F 86% 30.19 in 1.5 mi NW 10.4 mph - 0.00 in Snow Light Snow
6:54 AM 25.0 °F 16.3 °F 21.9 °F 88% 30.25 in 1.5 mi NNW 8.1 mph - 0.00 in Snow Light Snow
7:03 AM 24.8 °F 16.1 °F 21.2 °F 86% 30.19 in 2.0 mi NNW 8.1 mph - 0.00 in Snow Light Snow
7:24 AM 24.8 °F 14.6 °F 21.2 °F 86% 30.19 in 4.0 mi NNW 10.4 mph - 0.00 in Snow Light Snow
7:54 AM 25.0 °F 16.3 °F 21.0 °F 85% 30.26 in 10.0 mi NNW 8.1 mph - 0.00 in   Overcast
8:54 AM 26.1 °F 15.0 °F 21.9 °F 84% 30.27 in 8.0 mi NW 12.7 mph - 0.00 in Snow Light Snow
9:34 AM 26.6 °F 18.2 °F 21.2 °F 80% 30.22 in 6.0 mi NNW 8.1 mph - 0.00 in Snow Light Snow
9:54 AM 27.0 °F 18.7 °F 21.0 °F 78% 30.28 in 6.0 mi NNW 8.1 mph - 0.00 in Snow Light Snow
10:49 AM 26.6 °F 15.7 °F 21.2 °F 80% 30.23 in 3.0 mi NNW 12.7 mph - 0.00 in Snow Light Snow
10:54 AM 27.0 °F 16.1 °F 21.0 °F 78% 30.29 in 3.0 mi NNW 12.7 mph - 0.00 in Snow Light Snow
11:37 AM 26.6 °F 15.7 °F 21.2 °F 80% 30.23 in 3.0 mi NNW 12.7 mph - 0.00 in Snow Light Snow
11:54 AM 28.0 °F 19.3 °F 21.0 °F 75% 30.28 in 5.0 mi NNW 9.2 mph - 0.00 in Snow Light Snow
12:07 PM 28.4 °F 19.7 °F 21.2 °F 74% 30.22 in 4.0 mi NNW 9.2 mph - 0.00 in Snow Light Snow
12:54 PM 28.9 °F 19.2 °F 21.0 °F 72% 30.27 in 10.0 mi NNW 11.5 mph - 0.00 in   Overcast
1:54 PM 28.9 °F 19.2 °F 19.9 °F 69% 30.26 in 10.0 mi NW 11.5 mph - 0.00 in   Overcast
2:54 PM 30.0 °F 22.4 °F 21.0 °F 69% 30.26 in 10.0 mi NW 8.1 mph - 0.00 in   Overcast
3:54 PM 28.9 °F 21.1 °F 19.9 °F 69% 30.27 in 10.0 mi NW 8.1 mph - N/A   Overcast
4:54 PM 28.0 °F 19.3 °F 19.0 °F 69% 30.28 in 10.0 mi NNW 9.2 mph - N/A   Overcast
5:54 PM 27.0 °F 18.0 °F 18.0 °F 69% 30.29 in 10.0 mi NNW 9.2 mph - N/A   Overcast
6:54 PM 26.1 °F 16.8 °F 17.1 °F 69% 30.31 in 10.0 mi North 9.2 mph - N/A   Overcast
7:54 PM 24.1 °F 16.0 °F 15.1 °F 69% 30.32 in 10.0 mi North 6.9 mph - N/A   Mostly Cloudy
8:03 PM 21.2 °F 13.6 °F 14.0 °F 74% 30.25 in 10.0 mi North 5.8 mph - N/A   Mostly Cloudy
8:54 PM 19.0 °F - 12.9 °F 77% 30.32 in 10.0 mi Calm Calm - N/A   Clear
9:54 PM 19.0 °F 9.0 °F 12.9 °F 77% 30.33 in 10.0 mi NNW 8.1 mph - N/A   Clear
10:19 PM 19.4 °F 10.4 °F 12.2 °F 74% 30.27 in 10.0 mi NNW 6.9 mph - N/A   Mostly Cloudy
10:26 PM 17.6 °F 10.7 °F 12.2 °F 79% 30.27 in 10.0 mi NNW 4.6 mph - N/A   Scattered Clouds
10:50 PM 17.6 °F 10.7 °F 12.2 °F 79% 30.27 in 10.0 mi NW 4.6 mph - N/A   Mostly Cloudy
10:54 PM 18.0 °F 11.1 °F 12.0 °F 78% 30.33 in 10.0 mi NW 4.6 mph - N/A   Mostly Cloudy
11:13 PM 15.8 °F 8.6 °F 10.4 °F 79% 30.26 in 10.0 mi NW 4.6 mph - N/A   Scattered Clouds
11:54 PM 14.0 °F - 9.0 °F 80% 30.33 in 10.0 mi Calm Calm - N/A   Clear